Simultaneous Nadir Overpasses (SNOs) Predictions

Prediction of SNOs between FY3D and METOP-C Satellite Orbit:

Table of predicted SNOs for the next 14.0 days since TLE Epoch: 5/31/2019
Index Date (FY3D) Time (FY3D) Lat,Lon (FY3D) SZA (FY3D ) Date (METOP-C) Time (METOP-C) Lat,Lon (METOP-C) SZA (METOP-C ) Distance(km) Time Diff (sec)
1 05/31/2019 21:53:13 73.01,-155.87 51.10 05/31/2019 21:53:39 73.03,-155.78 51.11 3.38 26
2 05/31/2019 22:43:56 -73.00, 11.48 128.93 05/31/2019 22:44:22 -73.02, 11.52 128.91 2.84 26
3 05/31/2019 23:34:42 73.01, 178.78 51.08 05/31/2019 23:35:01 73.01, 178.83 51.08 1.98 19
4 06/01/2019 00:25:25 -72.99, -13.87 128.95 06/01/2019 00:25:44 -73.00, -13.86 128.94 1.39 19
5 06/01/2019 01:16:11 73.00, 153.42 51.06 06/01/2019 01:16:23 72.99, 153.45 51.05 1.19 12
6 06/01/2019 02:06:54 -72.98, -39.22 128.96 06/01/2019 02:07:06 -72.98, -39.25 128.96 0.80 12
7 06/01/2019 02:57:40 72.99, 128.07 51.04 06/01/2019 02:57:45 72.97, 128.07 51.03 1.97 5
8 06/01/2019 03:48:22 -72.97, -64.58 128.98 06/01/2019 03:48:27 -72.96, -64.63 128.99 2.04 5
9 06/01/2019 04:39:08 72.98, 102.71 51.03 06/01/2019 04:39:06 72.95, 102.69 51.00 3.37 2
10 06/01/2019 05:29:51 -72.96, -89.93 129.00 06/01/2019 05:29:48 -72.99, -89.90 128.97 3.35 3
11 06/01/2019 06:20:37 72.97, 77.36 51.01 06/01/2019 06:20:27 72.98, 77.41 51.02 2.03 10
12 06/01/2019 07:11:20 -72.96,-115.28 129.02 06/01/2019 07:11:10 -72.97,-115.28 129.00 1.98 10
13 06/01/2019 08:02:06 72.97, 52.01 50.99 06/01/2019 08:01:49 72.96, 52.03 50.99 0.82 17
14 06/01/2019 08:52:49 -72.95,-140.64 129.04 06/01/2019 08:52:32 -72.95,-140.67 129.03 1.20 17
15 06/01/2019 09:43:35 72.96, 26.65 50.97 06/01/2019 09:43:11 72.94, 26.65 50.96 1.49 24
16 06/01/2019 10:34:18 -72.94,-165.99 129.06 06/01/2019 10:33:54 -72.93,-166.05 129.06 1.95 24
17 06/01/2019 11:25:04 72.95, 1.30 50.95 06/01/2019 11:24:33 72.92, 1.27 50.93 2.95 31
18 06/01/2019 12:15:47 -72.93, 168.66 129.08 06/01/2019 12:15:16 -72.91, 168.57 129.08 3.31 31
19 06/01/2019 13:06:33 72.94, -24.05 50.93 06/01/2019 13:05:54 72.95, -24.01 50.95 2.22 39
20 06/01/2019 13:57:16 -72.92, 143.30 129.09 06/01/2019 13:56:37 -72.95, 143.30 129.06 2.58 39
21 06/01/2019 14:48:02 72.93, -49.41 50.92 06/01/2019 14:47:16 72.93, -49.39 50.93 0.71 46
22 06/01/2019 15:38:45 -72.91, 117.95 129.11 06/01/2019 15:37:59 -72.93, 117.91 129.09 1.73 46
23 06/01/2019 16:29:31 72.92, -74.76 50.90 06/01/2019 16:28:38 72.91, -74.77 50.90 1.02 53
24 06/01/2019 17:20:14 -72.91, 92.59 129.13 06/01/2019 17:19:21 -72.91, 92.53 129.12 2.03 53
25 06/01/2019 18:11:00 72.92,-100.12 50.88 06/01/2019 18:10:00 72.90,-100.15 50.87 2.56 60
26 06/01/2019 19:01:43 -72.90, 67.24 129.15 06/01/2019 19:00:43 -72.89, 67.15 129.15 3.17 60
27 06/01/2019 19:52:29 72.91,-125.47 50.86 06/01/2019 19:51:21 72.93,-125.43 50.89 2.51 68
28 06/01/2019 20:43:12 -72.89, 41.89 129.17 06/01/2019 20:42:04 -72.92, 41.88 129.13 3.18 68
29 06/01/2019 21:33:58 72.90,-150.82 50.84 06/01/2019 21:32:43 72.91,-150.81 50.86 0.94 75
30 06/01/2019 22:24:41 -72.88, 16.53 129.19 06/01/2019 22:23:26 -72.90, 16.49 129.15 2.29 75
31 06/01/2019 23:15:22 72.64,-175.65 50.55 06/01/2019 23:14:10 72.63,-176.72 50.61 35.39 72
32 06/02/2019 00:06:05 -72.62, -8.30 129.48 06/02/2019 00:04:53 -72.62, -9.41 129.41 37.00 72
33 06/02/2019 00:56:45 72.32, 159.61 50.21 06/02/2019 00:55:37 72.36, 157.39 50.35 74.88 68
34 06/02/2019 01:47:29 -72.36, -33.14 129.77 06/02/2019 01:46:20 -72.35, -35.30 129.66 72.75 69




NCC Satellite Simultaneous Nadir Overpasses (SNOs) Prediction Service
